TVS478P EPKT-LFBT

Flight info

Callsign TVS478P
Flight time 2h 26m
Altitude 40000
Route ADADO DCT DITIS DCT KIRDI DCT KPT L856 RAVED DCT BADEP Z669 MILPA N869 NINTU DCT LERGA DCT AGN
Aircraft B738/M-SDFGHIJ1LORVWXYZ/LB1

Departure

Time 2026-04-28 17:20
Airport Katowice Wojciech Korfanty International Airport (EPKT)

Arrival

Time 2026-04-28 19:46
Airport Tarbes-Lourdes-Pyrénées Airport (LFBT)
Time Latitude Longitude Altitude Speed Heading
2026-04-28 16:52 50.47138 19.09284 1000 ft 0 kts 180°
2026-04-28 17:11 50.47151 19.09284 997 ft 3 kts 180°
2026-04-28 17:11 50.47175 19.09284 997 ft 3 kts 180°
2026-04-28 17:11 50.47197 19.09285 997 ft 2 kts 180°
2026-04-28 17:12 50.47216 19.09286 997 ft 3 kts 200°
2026-04-28 17:12 50.47230 19.09302 1001 ft 3 kts 264°
2026-04-28 17:12 50.47230 19.09336 997 ft 3 kts 270°
2026-04-28 17:12 50.47230 19.09356 997 ft 0 kts 270°
2026-04-28 17:14 50.47230 19.09353 997 ft 1 kts 270°
2026-04-28 17:14 50.47230 19.09323 1001 ft 5 kts 270°
2026-04-28 17:14 50.47231 19.09230 999 ft 12 kts 270°
2026-04-28 17:15 50.47232 19.09070 1001 ft 18 kts 271°
2026-04-28 17:15 50.47231 19.08853 1001 ft 21 kts 270°
2026-04-28 17:15 50.47232 19.08617 1001 ft 21 kts 270°
2026-04-28 17:15 50.47233 19.08386 997 ft 21 kts 270°
2026-04-28 17:16 50.47233 19.08162 1000 ft 20 kts 270°
2026-04-28 17:16 50.47234 19.07945 997 ft 20 kts 270°
2026-04-28 17:16 50.47236 19.07735 1000 ft 19 kts 271°
2026-04-28 17:16 50.47234 19.07537 997 ft 17 kts 270°
2026-04-28 17:17 50.47246 19.07445 1000 ft 5 kts 327°
2026-04-28 17:17 50.47289 19.07441 997 ft 9 kts
2026-04-28 17:17 50.47375 19.07446 1001 ft 15 kts
2026-04-28 17:17 50.47427 19.07363 998 ft 12 kts 271°
2026-04-28 17:18 50.47427 19.07206 998 ft 18 kts 270°
2026-04-28 17:18 50.47427 19.06980 1000 ft 19 kts 270°
2026-04-28 17:18 50.47445 19.06854 1001 ft 8 kts 322°
2026-04-28 17:18 50.47495 19.06873 1000 ft 9 kts 52°
2026-04-28 17:19 50.47537 19.06980 998 ft 14 kts 57°
2026-04-28 17:19 50.47594 19.07152 1001 ft 23 kts 80°
2026-04-28 17:19 50.47600 19.07673 1000 ft 87 kts 89°
2026-04-28 17:19 50.47594 19.09026 1072 ft 150 kts 92°
2026-04-28 17:20 50.47489 19.10634 1891 ft 146 kts 91°
2026-04-28 17:20 50.47480 19.11710 2438 ft 149 kts 86°
2026-04-28 17:20 50.47507 19.14013 3030 ft 188 kts 87°
2026-04-28 17:20 50.47531 19.16233 3296 ft 217 kts 88°
2026-04-28 17:21 50.47155 19.18631 3652 ft 238 kts 117°
2026-04-28 17:21 50.46068 19.20654 4253 ft 249 kts 136°
2026-04-28 17:21 50.44571 19.22216 4722 ft 270 kts 161°
2026-04-28 17:22 50.40781 19.22261 6595 ft 276 kts 182°
2026-04-28 17:22 50.38847 19.22164 7541 ft 280 kts 181°
2026-04-28 17:22 50.36894 19.21957 8459 ft 285 kts 195°
2026-04-28 17:23 50.34193 19.17750 10412 ft 285 kts 247°
2026-04-28 17:23 50.33308 19.14880 11063 ft 304 kts 247°
2026-04-28 17:23 50.32377 19.11935 11680 ft 318 kts 247°
2026-04-28 17:23 50.31377 19.08818 12609 ft 322 kts 247°
2026-04-28 17:24 50.30364 19.05694 13668 ft 323 kts 248°
2026-04-28 17:24 50.29335 19.02544 14641 ft 327 kts 248°
2026-04-28 17:24 50.28289 18.99359 15584 ft 332 kts 248°
2026-04-28 17:24 50.27226 18.96133 16553 ft 335 kts 248°
2026-04-28 17:25 50.26152 18.92881 17477 ft 340 kts 248°
2026-04-28 17:25 50.23954 18.86252 19280 ft 347 kts 248°
2026-04-28 17:25 50.22835 18.82885 20109 ft 351 kts 248°
2026-04-28 17:26 50.21701 18.79478 20918 ft 356 kts 248°
2026-04-28 17:26 50.20565 18.76072 21687 ft 360 kts 248°
2026-04-28 17:26 50.19387 18.72545 22468 ft 364 kts 248°
2026-04-28 17:26 50.18225 18.69073 23188 ft 368 kts 248°
2026-04-28 17:27 50.17036 18.65525 23897 ft 371 kts 248°
2026-04-28 17:27 50.15833 18.61942 24575 ft 375 kts 248°
2026-04-28 17:27 50.14619 18.58330 25243 ft 377 kts 248°
2026-04-28 17:27 50.13396 18.54696 25918 ft 379 kts 248°
2026-04-28 17:28 50.12164 18.51042 26539 ft 382 kts 248°
2026-04-28 17:28 50.09677 18.43678 27748 ft 386 kts 248°
2026-04-28 17:28 50.08423 18.39976 28331 ft 387 kts 248°
2026-04-28 17:29 50.07165 18.36265 28883 ft 389 kts 248°
2026-04-28 17:29 50.05900 18.32539 29426 ft 390 kts 248°
2026-04-28 17:29 50.04629 18.28800 29928 ft 392 kts 248°
2026-04-28 17:30 50.02067 18.21280 30863 ft 395 kts 248°
2026-04-28 17:30 49.99469 18.13664 31537 ft 403 kts 248°
2026-04-28 17:30 49.98151 18.09811 31966 ft 404 kts 248°
2026-04-28 17:31 49.96830 18.05970 32520 ft 401 kts 248°
2026-04-28 17:31 49.94212 17.98373 33537 ft 399 kts 248°
2026-04-28 17:32 49.91589 17.90761 34327 ft 400 kts 248°
2026-04-28 17:32 49.90274 17.86957 34766 ft 400 kts 248°
2026-04-28 17:32 49.88955 17.83149 35082 ft 402 kts 248°
2026-04-28 17:32 49.87628 17.79314 35422 ft 404 kts 248°
2026-04-28 17:33 49.86297 17.75479 35819 ft 404 kts 248°
2026-04-28 17:33 49.84964 17.71641 36177 ft 405 kts 248°
2026-04-28 17:33 49.83642 17.67843 36473 ft 407 kts 248°
2026-04-28 17:33 49.82733 17.65230 36642 ft 409 kts 248°
2026-04-28 17:34 49.80951 17.60125 37302 ft 403 kts 247°
2026-04-28 17:34 49.79623 17.56339 37842 ft 399 kts 247°
2026-04-28 17:34 49.78294 17.52546 38009 ft 404 kts 247°
2026-04-28 17:34 49.76949 17.48704 38166 ft 408 kts 247°
2026-04-28 17:35 49.75595 17.44845 38508 ft 407 kts 247°
2026-04-28 17:35 49.74241 17.40998 38822 ft 408 kts 247°
2026-04-28 17:35 49.72882 17.37138 39040 ft 410 kts 247°
2026-04-28 17:35 49.71511 17.33253 39259 ft 412 kts 247°
2026-04-28 17:36 49.70135 17.29360 39563 ft 413 kts 247°
2026-04-28 17:36 49.68761 17.25477 39846 ft 412 kts 246°
2026-04-28 17:36 49.67382 17.21589 40062 ft 414 kts 246°
2026-04-28 17:36 49.65993 17.17679 40196 ft 417 kts 246°
2026-04-28 17:37 49.63183 17.09778 40193 ft 420 kts 246°
2026-04-28 17:37 49.60384 17.01948 40181 ft 413 kts 246°
2026-04-28 17:38 49.57615 16.94218 40196 ft 411 kts 246°
2026-04-28 17:38 49.54850 16.86513 40195 ft 411 kts 246°
2026-04-28 17:39 49.52075 16.78805 40184 ft 412 kts 246°
2026-04-28 17:40 49.47896 16.67241 40186 ft 413 kts 246°
2026-04-28 17:40 49.45093 16.59515 40170 ft 414 kts 246°
2026-04-28 17:41 49.42285 16.51799 40181 ft 414 kts 246°
2026-04-28 17:41 49.39467 16.44080 40174 ft 414 kts 246°
2026-04-28 17:42 49.36646 16.36374 40173 ft 414 kts 246°
2026-04-28 17:42 49.33817 16.28669 40169 ft 415 kts 246°
2026-04-28 17:43 49.30982 16.20970 40165 ft 415 kts 246°
2026-04-28 17:43 49.28160 16.13330 40166 ft 415 kts 246°
2026-04-28 17:44 49.25317 16.05653 40160 ft 415 kts 245°
2026-04-28 17:44 49.22466 15.97980 40155 ft 415 kts 245°
2026-04-28 17:45 49.19612 15.90321 40159 ft 414 kts 245°
2026-04-28 17:45 49.16758 15.82684 40154 ft 414 kts 245°
2026-04-28 17:46 49.13902 15.75064 40154 ft 413 kts 245°
2026-04-28 17:46 49.11047 15.67465 40157 ft 412 kts 245°
2026-04-28 17:47 49.08187 15.59879 40158 ft 412 kts 245°
2026-04-28 17:47 49.05328 15.52315 40156 ft 412 kts 245°
2026-04-28 17:48 49.02460 15.44751 40159 ft 411 kts 245°
2026-04-28 17:48 48.99594 15.37211 40156 ft 412 kts 245°
2026-04-28 17:49 48.96719 15.29668 40156 ft 412 kts 245°
2026-04-28 17:49 48.94329 15.23414 40150 ft 411 kts 245°
2026-04-28 17:50 48.91449 15.15896 40151 ft 411 kts 245°
2026-04-28 17:50 48.88732 15.08279 40151 ft 407 kts 250°
2026-04-28 17:51 48.86474 15.00401 40148 ft 406 kts 252°
2026-04-28 17:51 48.84256 14.92509 40142 ft 407 kts 251°
2026-04-28 17:52 48.82005 14.84630 40139 ft 407 kts 251°
2026-04-28 17:52 48.78585 14.72842 40134 ft 407 kts 251°
2026-04-28 17:53 48.76294 14.64995 40133 ft 407 kts 251°
2026-04-28 17:53 48.73999 14.57164 40129 ft 406 kts 251°
2026-04-28 17:54 48.71703 14.49351 40129 ft 406 kts 251°
2026-04-28 17:54 48.69403 14.41549 40122 ft 406 kts 251°
2026-04-28 17:55 48.67099 14.33758 40128 ft 405 kts 251°
2026-04-28 17:55 48.64808 14.26037 40119 ft 405 kts 250°
2026-04-28 17:56 48.62500 14.18282 40119 ft 404 kts 250°
2026-04-28 17:56 48.60186 14.10534 40111 ft 404 kts 250°
2026-04-28 17:57 48.57872 14.02807 40110 ft 404 kts 250°
2026-04-28 17:57 48.55555 13.95096 40115 ft 403 kts 250°
2026-04-28 17:58 48.53234 13.87396 40106 ft 403 kts 250°
2026-04-28 17:58 48.50912 13.79716 40115 ft 402 kts 250°
2026-04-28 17:59 48.48584 13.72041 40106 ft 402 kts 250°
2026-04-28 17:59 48.46254 13.64382 40114 ft 402 kts 250°
2026-04-28 18:00 48.43919 13.56729 40109 ft 402 kts 250°
2026-04-28 18:00 48.41580 13.49088 40108 ft 402 kts 250°
2026-04-28 18:01 48.39236 13.41454 40115 ft 402 kts 250°
2026-04-28 18:01 48.36883 13.33815 40110 ft 402 kts 250°
2026-04-28 18:02 48.34526 13.26184 40111 ft 402 kts 250°
2026-04-28 18:02 48.32165 13.18565 40103 ft 403 kts 250°
2026-04-28 18:03 48.29795 13.10942 40101 ft 402 kts 249°
2026-04-28 18:03 48.27423 13.03332 40101 ft 402 kts 249°
2026-04-28 18:04 48.25047 12.95733 40103 ft 402 kts 249°
2026-04-28 18:04 48.22719 12.88128 40094 ft 399 kts 254°
2026-04-28 18:05 48.21632 12.81473 40113 ft 394 kts 262°
2026-04-28 18:05 48.20352 12.72039 40114 ft 396 kts 262°
2026-04-28 18:06 48.19225 12.63944 40112 ft 397 kts 262°
2026-04-28 18:06 48.18077 12.55829 40105 ft 399 kts 262°
2026-04-28 18:07 48.16915 12.47692 40101 ft 400 kts 261°
2026-04-28 18:07 48.15751 12.39598 40103 ft 400 kts 261°
2026-04-28 18:08 48.14575 12.31458 40100 ft 400 kts 261°
2026-04-28 18:08 48.13385 12.23267 40103 ft 400 kts 261°
2026-04-28 18:09 48.12207 12.15205 40100 ft 399 kts 261°
2026-04-28 18:09 48.11019 12.07107 40101 ft 398 kts 261°
2026-04-28 18:10 48.09827 11.99032 40100 ft 397 kts 261°
2026-04-28 18:10 48.08633 11.90981 40103 ft 396 kts 261°
2026-04-28 18:11 48.07435 11.82945 40099 ft 396 kts 261°
2026-04-28 18:11 48.06233 11.74922 40101 ft 395 kts 261°
2026-04-28 18:12 48.05026 11.66912 40102 ft 395 kts 261°
2026-04-28 18:12 48.03814 11.58907 40102 ft 395 kts 261°
2026-04-28 18:13 48.02597 11.50907 40101 ft 395 kts 261°
2026-04-28 18:13 48.01373 11.42902 40103 ft 396 kts 261°
2026-04-28 18:14 48.00142 11.34889 40102 ft 397 kts 260°
2026-04-28 18:14 47.98902 11.26858 40108 ft 397 kts 260°
2026-04-28 18:15 47.97654 11.18823 40102 ft 397 kts 260°
2026-04-28 18:15 47.96408 11.10837 40091 ft 398 kts 260°
2026-04-28 18:16 47.95140 11.02749 40093 ft 398 kts 260°
2026-04-28 18:16 47.93873 10.94709 40081 ft 398 kts 260°
2026-04-28 18:17 47.92602 10.86676 40086 ft 398 kts 260°
2026-04-28 18:17 47.91333 10.78701 40076 ft 398 kts 259°
2026-04-28 18:18 47.90050 10.70676 40077 ft 398 kts 259°
2026-04-28 18:18 47.88972 10.63965 40078 ft 398 kts 259°
2026-04-28 18:19 47.87470 10.54656 40077 ft 397 kts 259°
2026-04-28 18:19 47.86174 10.46664 40058 ft 397 kts 259°
2026-04-28 18:20 47.84871 10.38668 40068 ft 397 kts 259°
2026-04-28 18:20 47.83559 10.30656 40078 ft 397 kts 259°
2026-04-28 18:21 47.82250 10.22699 40074 ft 397 kts 259°
2026-04-28 18:21 47.80930 10.14711 40075 ft 398 kts 259°
2026-04-28 18:22 47.79606 10.06729 40079 ft 398 kts 259°
2026-04-28 18:22 47.78271 9.98737 40078 ft 398 kts 259°
2026-04-28 18:23 47.76931 9.90750 40071 ft 398 kts 259°
2026-04-28 18:23 47.75589 9.82769 40062 ft 398 kts 259°
2026-04-28 18:24 47.74469 9.76130 40078 ft 398 kts 259°
2026-04-28 18:24 47.72845 9.66814 40066 ft 399 kts 255°
2026-04-28 18:25 47.70658 9.59195 40077 ft 402 kts 249°
2026-04-28 18:26 47.67198 9.47868 40077 ft 401 kts 249°
2026-04-28 18:26 47.64908 9.40321 40069 ft 401 kts 249°
2026-04-28 18:27 47.62624 9.32783 40065 ft 401 kts 249°
2026-04-28 18:27 47.60337 9.25246 40070 ft 401 kts 249°
2026-04-28 18:28 47.58062 9.17771 40068 ft 400 kts 249°
2026-04-28 18:28 47.55752 9.10206 40064 ft 400 kts 249°
2026-04-28 18:29 47.53470 9.02753 40065 ft 401 kts 249°
2026-04-28 18:29 47.51164 8.95247 40072 ft 401 kts 249°
2026-04-28 18:30 47.48853 8.87744 40081 ft 401 kts 249°
2026-04-28 18:30 47.46533 8.80237 40070 ft 402 kts 248°
2026-04-28 18:31 47.44208 8.72733 40059 ft 402 kts 248°
2026-04-28 18:31 47.41875 8.65228 40057 ft 402 kts 248°
2026-04-28 18:32 47.39535 8.57724 40061 ft 402 kts 248°
2026-04-28 18:32 47.37189 8.50223 40077 ft 402 kts 248°
2026-04-28 18:33 47.34841 8.42735 40085 ft 402 kts 248°
2026-04-28 18:33 47.32486 8.35248 40091 ft 402 kts 248°
2026-04-28 18:34 47.30128 8.27775 40094 ft 402 kts 248°
2026-04-28 18:34 47.27764 8.20304 40093 ft 403 kts 248°
2026-04-28 18:35 47.25394 8.12836 40092 ft 402 kts 248°
2026-04-28 18:35 47.23420 8.06634 40096 ft 402 kts 248°
2026-04-28 18:36 47.21042 7.99181 40084 ft 402 kts 248°
2026-04-28 18:36 47.18659 7.91734 40082 ft 402 kts 247°
2026-04-28 18:37 47.16274 7.84302 40078 ft 402 kts 247°
2026-04-28 18:37 47.13880 7.76865 40070 ft 402 kts 247°
2026-04-28 18:38 47.11485 7.69444 40058 ft 402 kts 247°
2026-04-28 18:38 47.09087 7.62037 40053 ft 402 kts 247°
2026-04-28 18:39 47.06688 7.54643 40049 ft 401 kts 247°
2026-04-28 18:39 47.04287 7.47267 40056 ft 400 kts 247°
2026-04-28 18:40 47.01560 7.40153 40037 ft 404 kts 235°
2026-04-28 18:40 46.97987 7.33795 40049 ft 404 kts 234°
2026-04-28 18:41 46.94452 7.27409 40051 ft 403 kts 234°
2026-04-28 18:41 46.90942 7.21007 40052 ft 403 kts 234°
2026-04-28 18:42 46.87433 7.14617 40059 ft 403 kts 234°
2026-04-28 18:42 46.83916 7.08232 40078 ft 403 kts 234°
2026-04-28 18:43 46.80390 7.01847 40079 ft 404 kts 234°
2026-04-28 18:43 46.76861 6.95476 40065 ft 404 kts 234°
2026-04-28 18:44 46.73326 6.89105 40079 ft 404 kts 234°
2026-04-28 18:44 46.68014 6.79552 40064 ft 404 kts 234°
2026-04-28 18:45 46.64647 6.73030 40080 ft 400 kts 242°
2026-04-28 18:45 46.61863 6.66018 40076 ft 400 kts 243°
2026-04-28 18:46 46.59102 6.58985 40067 ft 401 kts 243°
2026-04-28 18:46 46.56310 6.51972 40080 ft 401 kts 243°
2026-04-28 18:47 46.53502 6.44985 40079 ft 400 kts 242°
2026-04-28 18:47 46.50688 6.38012 40070 ft 400 kts 242°
2026-04-28 18:48 46.47871 6.31049 40070 ft 400 kts 242°
2026-04-28 18:48 46.45051 6.24097 40078 ft 400 kts 242°
2026-04-28 18:49 46.42704 6.18325 40061 ft 400 kts 242°
2026-04-28 18:49 46.39401 6.10218 40062 ft 399 kts 242°
2026-04-28 18:50 46.36574 6.03299 40077 ft 399 kts 242°
2026-04-28 18:50 46.33745 5.96390 40087 ft 399 kts 242°
2026-04-28 18:51 46.30906 5.89476 40080 ft 400 kts 242°
2026-04-28 18:51 46.27874 5.82715 40080 ft 401 kts 238°
2026-04-28 18:52 46.24694 5.76145 40057 ft 402 kts 238°
2026-04-28 18:52 46.21503 5.69519 40077 ft 402 kts 238°
2026-04-28 18:53 46.18332 5.62887 40062 ft 402 kts 238°
2026-04-28 18:53 46.15156 5.56255 40059 ft 402 kts 238°
2026-04-28 18:54 46.11977 5.49626 40060 ft 402 kts 238°
2026-04-28 18:54 46.08802 5.43008 40059 ft 401 kts 238°
2026-04-28 18:55 46.06141 5.37471 40054 ft 401 kts 238°
2026-04-28 18:55 46.02443 5.29793 40067 ft 401 kts 238°
2026-04-28 18:56 45.99259 5.23201 40055 ft 401 kts 238°
2026-04-28 18:56 45.96073 5.16619 40055 ft 401 kts 238°
2026-04-28 18:57 45.92879 5.10037 40050 ft 401 kts 238°
2026-04-28 18:57 45.89684 5.03466 40053 ft 401 kts 238°
2026-04-28 18:58 45.86484 4.96902 40042 ft 401 kts 237°
2026-04-28 18:58 45.83282 4.90349 40044 ft 401 kts 237°
2026-04-28 18:59 45.80078 4.83807 40050 ft 401 kts 237°
2026-04-28 18:59 45.76866 4.77262 40042 ft 401 kts 237°
2026-04-28 19:00 45.73653 4.70731 40047 ft 401 kts 237°
2026-04-28 19:00 45.70437 4.64211 40047 ft 401 kts 237°
2026-04-28 19:01 45.67216 4.57693 40035 ft 401 kts 237°
2026-04-28 19:01 45.63992 4.51186 40036 ft 401 kts 237°
2026-04-28 19:02 45.60761 4.44679 40035 ft 402 kts 237°
2026-04-28 19:02 45.57523 4.38172 40027 ft 402 kts 237°
2026-04-28 19:03 45.54279 4.31669 40025 ft 403 kts 237°
2026-04-28 19:03 45.51022 4.25155 40017 ft 403 kts 237°
2026-04-28 19:04 45.47765 4.18657 40016 ft 403 kts 237°
2026-04-28 19:04 45.44505 4.12165 40021 ft 402 kts 237°
2026-04-28 19:05 45.41245 4.05690 40015 ft 402 kts 237°
2026-04-28 19:05 45.37985 3.99228 40020 ft 402 kts 236°
2026-04-28 19:06 45.35272 3.93860 40021 ft 402 kts 236°
2026-04-28 19:06 45.31456 3.86328 40018 ft 402 kts 236°
2026-04-28 19:07 45.28189 3.79894 40020 ft 401 kts 236°
2026-04-28 19:07 45.24948 3.73455 40019 ft 400 kts 238°
2026-04-28 19:08 45.21915 3.66839 40018 ft 400 kts 239°
2026-04-28 19:08 45.18935 3.60183 40023 ft 400 kts 239°
2026-04-28 19:09 45.15935 3.53537 40016 ft 400 kts 239°
2026-04-28 19:09 45.12920 3.46909 40017 ft 400 kts 239°
2026-04-28 19:10 45.09895 3.40292 40014 ft 400 kts 239°
2026-04-28 19:10 45.06884 3.33723 40024 ft 400 kts 238°
2026-04-28 19:11 45.03849 3.27120 40015 ft 401 kts 238°
2026-04-28 19:11 45.00809 3.20520 40012 ft 401 kts 238°
2026-04-28 19:12 44.97760 3.13914 40007 ft 401 kts 238°
2026-04-28 19:12 44.94709 3.07320 40008 ft 401 kts 238°
2026-04-28 19:13 44.91654 3.00735 40010 ft 401 kts 238°
2026-04-28 19:13 44.88596 2.94155 40003 ft 401 kts 238°
2026-04-28 19:14 44.85532 2.87578 40000 ft 401 kts 238°
2026-04-28 19:14 44.82465 2.81010 40000 ft 401 kts 238°
2026-04-28 19:15 44.79399 2.74459 39999 ft 400 kts 238°
2026-04-28 19:15 44.77346 2.70083 40000 ft 400 kts 238°
2026-04-28 19:16 44.73264 2.61399 39987 ft 399 kts 238°
2026-04-28 19:16 44.70198 2.54896 39994 ft 399 kts 238°
2026-04-28 19:17 44.67134 2.48411 39995 ft 398 kts 238°
2026-04-28 19:17 44.64068 2.41931 39992 ft 398 kts 237°
2026-04-28 19:18 44.61520 2.36554 39991 ft 398 kts 237°
2026-04-28 19:18 44.58449 2.30098 39989 ft 397 kts 237°
2026-04-28 19:19 44.55379 2.23653 39988 ft 397 kts 237°
2026-04-28 19:19 44.52298 2.17199 39593 ft 401 kts 237°
2026-04-28 19:20 44.50755 2.13971 39086 ft 398 kts 237°
2026-04-28 19:20 44.49218 2.10762 38564 ft 396 kts 237°
2026-04-28 19:20 44.47685 2.07564 37965 ft 395 kts 237°
2026-04-28 19:20 44.46159 2.04384 37389 ft 393 kts 237°
2026-04-28 19:21 44.44634 2.01210 36785 ft 392 kts 236°
2026-04-28 19:21 44.43114 1.98048 36175 ft 390 kts 236°
2026-04-28 19:21 44.41602 1.94903 35527 ft 390 kts 236°
2026-04-28 19:21 44.40096 1.91776 35039 ft 386 kts 236°
2026-04-28 19:22 44.38603 1.88678 34545 ft 382 kts 236°
2026-04-28 19:22 44.37621 1.86645 34236 ft 379 kts 235°
2026-04-28 19:22 44.35658 1.82585 33597 ft 375 kts 235°
2026-04-28 19:22 44.34203 1.79578 33130 ft 372 kts 235°
2026-04-28 19:23 44.32758 1.76597 32664 ft 369 kts 235°
2026-04-28 19:23 44.31327 1.73646 32211 ft 366 kts 235°
2026-04-28 19:23 44.29906 1.70721 31756 ft 363 kts 235°
2026-04-28 19:23 44.28494 1.67818 31296 ft 360 kts 235°
2026-04-28 19:24 44.27089 1.64932 30857 ft 358 kts 235°
2026-04-28 19:24 44.25692 1.62064 30408 ft 357 kts 235°
2026-04-28 19:24 44.24302 1.59213 29969 ft 355 kts 235°
2026-04-28 19:24 44.22915 1.56370 29518 ft 353 kts 235°
2026-04-28 19:25 44.21533 1.53542 29059 ft 353 kts 235°
2026-04-28 19:25 44.20152 1.50719 28594 ft 352 kts 235°
2026-04-28 19:25 44.18772 1.47899 28132 ft 351 kts 235°
2026-04-28 19:25 44.17398 1.45096 27672 ft 350 kts 235°
2026-04-28 19:26 44.16025 1.42297 27204 ft 349 kts 235°
2026-04-28 19:26 44.14655 1.39506 26737 ft 349 kts 235°
2026-04-28 19:26 44.13286 1.36721 26276 ft 348 kts 235°
2026-04-28 19:26 44.11924 1.33950 25822 ft 347 kts 235°
2026-04-28 19:27 44.10560 1.31180 25346 ft 346 kts 235°
2026-04-28 19:27 44.09219 1.28459 24889 ft 345 kts 235°
2026-04-28 19:27 44.07863 1.25709 24430 ft 344 kts 235°
2026-04-28 19:27 44.06512 1.22971 23974 ft 343 kts 235°
2026-04-28 19:28 44.05164 1.20245 23517 ft 342 kts 235°
2026-04-28 19:28 44.03822 1.17530 23064 ft 340 kts 235°
2026-04-28 19:28 44.02484 1.14826 22611 ft 339 kts 235°
2026-04-28 19:28 44.01150 1.12133 22159 ft 338 kts 235°
2026-04-28 19:29 43.99822 1.09453 21711 ft 336 kts 235°
2026-04-28 19:29 43.98927 1.07648 21409 ft 335 kts 235°
2026-04-28 19:29 43.97176 1.04123 20795 ft 334 kts 236°
2026-04-28 19:29 43.95858 1.01470 20356 ft 334 kts 236°
2026-04-28 19:30 43.94543 0.98827 19913 ft 333 kts 236°
2026-04-28 19:30 43.93229 0.96186 19465 ft 332 kts 236°
2026-04-28 19:30 43.91920 0.93557 19017 ft 330 kts 236°
2026-04-28 19:30 43.90615 0.90945 18576 ft 329 kts 236°
2026-04-28 19:31 43.89311 0.88345 18130 ft 328 kts 234°
2026-04-28 19:31 43.87729 0.86076 17609 ft 330 kts 219°
2026-04-28 19:31 43.85867 0.84218 17152 ft 330 kts 217°
2026-04-28 19:31 43.83991 0.82394 16681 ft 329 kts 216°
2026-04-28 19:32 43.82126 0.80578 16226 ft 327 kts 216°
2026-04-28 19:32 43.80275 0.78767 15864 ft 323 kts 217°
2026-04-28 19:32 43.78454 0.76964 15373 ft 322 kts 217°
2026-04-28 19:32 43.76640 0.75165 14937 ft 320 kts 216°
2026-04-28 19:33 43.74830 0.73349 14496 ft 321 kts 217°
2026-04-28 19:33 43.73025 0.71554 14056 ft 317 kts 217°
2026-04-28 19:33 43.71253 0.69777 13624 ft 313 kts 216°
2026-04-28 19:33 43.69489 0.68033 13206 ft 311 kts 216°
2026-04-28 19:34 43.67732 0.66278 12776 ft 311 kts 216°
2026-04-28 19:34 43.65975 0.64553 12360 ft 310 kts 216°
2026-04-28 19:34 43.64221 0.62827 11937 ft 309 kts 215°
2026-04-28 19:34 43.62480 0.61108 11518 ft 308 kts 215°
2026-04-28 19:35 43.60735 0.59385 11090 ft 308 kts 215°
2026-04-28 19:35 43.58995 0.57668 10647 ft 308 kts 215°
2026-04-28 19:35 43.57250 0.55947 10223 ft 309 kts 215°
2026-04-28 19:35 43.55523 0.54242 10065 ft 301 kts 215°
2026-04-28 19:36 43.53885 0.52627 9865 ft 296 kts 215°
2026-04-28 19:36 43.52783 0.51537 9877 ft 284 kts 214°
2026-04-28 19:36 43.51500 0.50268 9613 ft 279 kts 214°
2026-04-28 19:36 43.50777 0.49555 9279 ft 286 kts 214°
2026-04-28 19:37 43.49158 0.47960 8804 ft 287 kts 214°
2026-04-28 19:37 43.48053 0.46872 8516 ft 287 kts 214°
2026-04-28 19:37 43.45889 0.44743 8018 ft 284 kts 214°
2026-04-28 19:37 43.44291 0.43173 7660 ft 282 kts 214°
2026-04-28 19:38 43.42722 0.41633 7339 ft 278 kts 214°
2026-04-28 19:38 43.41186 0.39985 6986 ft 276 kts 227°
2026-04-28 19:38 43.40246 0.37713 6707 ft 272 kts 246°
2026-04-28 19:38 43.39524 0.35323 6408 ft 269 kts 247°
2026-04-28 19:39 43.38818 0.32958 6094 ft 266 kts 247°
2026-04-28 19:39 43.38116 0.30620 5815 ft 263 kts 247°
2026-04-28 19:39 43.37418 0.28309 5512 ft 261 kts 247°
2026-04-28 19:39 43.36723 0.26022 5221 ft 258 kts 247°
2026-04-28 19:40 43.36033 0.23759 4932 ft 256 kts 247°
2026-04-28 19:40 43.35356 0.21544 4647 ft 254 kts 247°
2026-04-28 19:40 43.34674 0.19320 4353 ft 251 kts 247°
2026-04-28 19:40 43.33996 0.17115 4079 ft 249 kts 248°
2026-04-28 19:41 43.33325 0.14931 3803 ft 247 kts 248°
2026-04-28 19:41 43.32855 0.12680 3522 ft 245 kts 260°
2026-04-28 19:41 43.32550 0.10394 3255 ft 243 kts 260°
2026-04-28 19:41 43.32231 0.08130 3050 ft 238 kts 258°
2026-04-28 19:42 43.31511 0.06198 2995 ft 223 kts 222°
2026-04-28 19:42 43.30176 0.05375 3003 ft 204 kts 191°
2026-04-28 19:42 43.28860 0.04954 2989 ft 186 kts 199°
2026-04-28 19:42 43.28063 0.04559 2977 ft 175 kts 201°
2026-04-28 19:43 43.26595 0.03801 2723 ft 164 kts 201°
2026-04-28 19:43 43.25555 0.03271 2521 ft 154 kts 201°
2026-04-28 19:43 43.24594 0.02784 2319 ft 142 kts 201°
2026-04-28 19:43 43.23691 0.02324 2139 ft 138 kts 201°
2026-04-28 19:44 43.22785 0.01859 1942 ft 137 kts 201°
2026-04-28 19:44 43.21902 0.01410 1742 ft 133 kts 201°
2026-04-28 19:44 43.21046 0.00983 1559 ft 131 kts 200°
2026-04-28 19:44 43.20184 0.00540 1406 ft 132 kts 201°
2026-04-28 19:45 43.19334 0.00110 1258 ft 129 kts 200°
2026-04-28 19:45 43.18520 -0.00302 1199 ft 113 kts 200°
2026-04-28 19:45 43.17924 -0.00602 1217 ft 69 kts 200°
2026-04-28 19:45 43.17551 -0.00792 1225 ft 50 kts 200°
2026-04-28 19:46 43.17352 -0.00895 1243 ft 11 kts 201°
2026-04-28 19:46 43.17283 -0.00930 1238 ft 11 kts 200°
2026-04-28 19:46 43.17213 -0.00965 1246 ft 11 kts 200°
2026-04-28 19:46 43.17136 -0.00994 1246 ft 11 kts 176°
2026-04-28 19:47 43.17085 -0.00917 1253 ft 12 kts 112°
2026-04-28 19:47 43.17065 -0.00804 1251 ft 12 kts 83°
2026-04-28 19:47 43.17132 -0.00740 1246 ft 15 kts 20°
2026-04-28 19:47 43.17268 -0.00671 1241 ft 27 kts 20°
2026-04-28 19:48 43.17468 -0.00570 1228 ft 29 kts 20°
2026-04-28 19:48 43.17656 -0.00461 1222 ft 30 kts 26°
2026-04-28 19:48 43.17828 -0.00332 1217 ft 29 kts 29°
2026-04-28 19:48 43.18006 -0.00197 1212 ft 29 kts 29°
2026-04-28 19:49 43.18179 -0.00065 1206 ft 28 kts 29°
2026-04-28 19:49 43.18344 0.00059 1200 ft 27 kts 29°
2026-04-28 19:49 43.18424 0.00128 1197 ft 1 kts 46°
2026-04-28 19:49 43.18438 0.00148 1197 ft 5 kts 46°
2026-04-28 19:50 43.18453 0.00180 1196 ft 2 kts 96°
2026-04-28 19:50 43.18444 0.00200 1196 ft 3 kts 120°
2026-04-28 19:50 43.18427 0.00237 1196 ft 6 kts 123°
2026-04-28 19:51 43.18413 0.00274 1196 ft 7 kts 114°